Date String (YYYY-MM-DD hh:mm:ss) UTC,Instrument flags,Ambient pressure (hPa),Sample flow (lpm),Bypass flow (lpm),Sample temperature (°C),Ambient temperature (°C),ASC tube jacket temperature (°C),LED temperature (°C),Box temperature (°C),Sample RH (%),Span deviation,Mass concentration (μg/m³),Mass concentration (μg/m³),Mass concentration (μg/m³)
DateTimeUTC,F1_M11,P_M11,Q1_M11,Q2_M11,T1_M11,T2_M11,T3_M11,T4_M11,T5_M11,U1_M11,ZSPAN_M11,X0_M11,X2_M11,X1_M11
2022-01-25 18:00:00,,0830.6,5.01,0.00,22.7,22.1,00.0,31.7,24.4,13.0,0000.0,0001.24,0000.90,0000.82
2022-01-25 18:01:00,,0830.5,5.00,0.00,22.7,22.0,00.0,31.7,24.4,13.1,0000.0,0001.29,0000.92,0000.83
2022-01-25 18:02:00,,0830.4,5.00,0.00,22.7,22.0,00.0,31.7,24.3,13.1,0000.0,0001.31,0000.94,0000.85
2022-01-25 18:03:00,,0830.5,5.00,0.00,22.6,22.0,00.0,31.7,24.3,13.2,0000.0,0001.39,0000.97,0000.87
2022-01-25 18:04:00,,0830.5,4.99,0.00,22.6,21.9,00.0,31.6,24.3,13.2,0000.0,0001.39,0000.99,0000.89
2022-01-25 18:05:00,,0830.5,5.00,0.00,22.6,21.9,00.0,31.6,24.3,13.2,0000.0,0001.44,0001.02,0000.91
2022-01-25 18:06:00,,0830.5,5.00,0.00,22.6,21.9,00.0,31.6,24.3,13.2,0000.0,0001.47,0001.05,0000.94
2022-01-25 18:07:00,,0830.6,5.00,0.00,22.6,21.8,00.0,31.6,24.2,13.3,0000.0,0001.38,0001.07,0000.96
2022-01-25 18:08:00,,0830.5,5.00,0.00,22.6,22.0,00.0,31.6,24.3,13.4,0000.0,0001.38,0001.08,0000.98
2022-01-25 18:09:00,,0830.6,5.01,0.00,22.7,22.7,00.0,31.6,24.5,13.4,0000.0,0001.39,0001.10,0001.00
2022-01-25 18:10:00,,0830.5,5.00,0.00,22.8,23.3,00.0,31.7,24.7,13.3,0000.0,0001.40,0001.11,0001.02
2022-01-25 18:11:00,,0830.6,4.99,0.00,22.8,23.1,00.0,31.7,24.8,13.3,0000.0,0001.39,0001.13,0001.04
2022-01-25 18:12:00,,0830.5,5.00,0.00,22.8,22.9,00.0,31.7,24.7,13.2,0000.0,0001.38,0001.14,0001.06
2022-01-25 18:13:00,,0830.5,5.01,0.00,22.8,22.7,00.0,31.7,24.7,13.2,0000.0,0001.49,0001.18,0001.08
2022-01-25 18:14:00,,0830.5,5.00,0.00,22.8,22.6,00.0,31.7,24.6,13.2,0000.0,0001.48,0001.19,0001.10
2022-01-25 18:15:00,,0830.5,4.98,0.00,22.8,22.5,00.0,31.7,24.6,13.2,0000.0,0001.52,0001.23,0001.13
2022-01-25 18:16:00,,0830.5,5.00,0.00,22.8,22.4,00.0,31.7,24.5,13.3,0000.0,0001.55,0001.25,0001.15
2022-01-25 18:17:00,,0830.5,5.01,0.00,22.8,22.3,00.0,31.7,24.5,13.3,0000.0,0001.57,0001.28,0001.17
2022-01-25 18:18:00,,0830.5,5.00,0.00,22.7,22.3,00.0,31.7,24.4,13.4,0000.0,0001.70,0001.32,0001.19
2022-01-25 18:19:00,,0830.5,5.00,0.00,22.7,22.2,00.0,31.7,24.4,13.4,0000.0,0001.81,0001.35,0001.21
2022-01-25 18:20:00,,0830.5,5.00,0.00,22.7,22.1,00.0,31.7,24.4,13.4,0000.0,0001.81,0001.36,0001.23
2022-01-25 18:21:00,,0830.4,5.00,0.00,22.7,22.1,00.0,31.6,24.4,13.5,0000.0,0001.83,0001.38,0001.26
2022-01-25 18:22:00,,0830.5,4.99,0.00,22.7,22.1,00.0,31.6,24.4,13.5,0000.0,0001.84,0001.40,0001.28
2022-01-25 18:23:00,,0830.5,5.00,0.00,22.7,22.0,00.0,31.6,24.4,13.5,0000.0,0001.86,0001.42,0001.30
2022-01-25 18:24:00,,0830.5,5.00,0.00,22.6,22.0,00.0,31.6,24.3,13.4,0000.0,0001.80,0001.43,0001.32
2022-01-25 18:25:00,,0830.4,5.01,0.00,22.6,22.0,00.0,31.6,24.3,13.4,0000.0,0001.85,0001.47,0001.34
2022-01-25 18:26:00,,0830.4,5.00,0.00,22.6,22.0,00.0,31.6,24.3,13.5,0000.0,0001.88,0001.48,0001.35
2022-01-25 18:27:00,,0830.4,5.00,0.00,22.6,22.0,00.0,31.6,24.3,13.5,0000.0,0001.86,0001.48,0001.36
2022-01-25 18:28:00,,0830.5,5.02,0.00,22.6,21.9,00.0,31.6,24.3,13.5,0000.0,0001.87,0001.49,0001.38
2022-01-25 18:29:00,,0830.5,4.99,0.00,22.6,21.9,00.0,31.6,24.3,13.5,0000.0,0001.79,0001.50,0001.39
2022-01-25 18:30:00,,0830.5,5.01,0.00,22.6,21.9,00.0,31.6,24.3,13.5,0000.0,0001.74,0001.52,0001.41
2022-01-25 18:31:00,,0830.3,5.00,0.00,22.6,21.9,00.0,31.6,24.3,13.5,0000.0,0001.77,0001.54,0001.43
2022-01-25 18:32:00,,0830.4,5.00,0.00,22.6,21.8,00.0,31.6,24.3,13.5,0000.0,0001.82,0001.56,0001.44
2022-01-25 18:33:00,,0830.3,5.00,0.00,22.6,21.8,00.0,31.5,24.3,13.5,0000.0,0001.83,0001.58,0001.46
2022-01-25 18:34:00,,0830.4,5.00,0.00,22.6,21.8,00.0,31.5,24.3,13.6,0000.0,0001.83,0001.60,0001.48
2022-01-25 18:35:00,,0830.4,5.00,0.00,22.6,21.8,00.0,31.5,24.3,13.6,0000.0,0001.88,0001.63,0001.51
2022-01-25 18:36:00,,0830.4,5.00,0.00,22.5,21.8,00.0,31.5,24.3,13.6,0000.0,0001.85,0001.64,0001.54
2022-01-25 18:37:00,,0830.4,5.00,0.00,22.5,21.8,00.0,31.5,24.2,13.5,0000.0,0001.85,0001.66,0001.56
2022-01-25 18:38:00,,0830.4,5.00,0.00,22.5,21.8,00.0,31.5,24.2,13.6,0000.0,0001.92,0001.69,0001.59
2022-01-25 18:39:00,,0830.4,4.99,0.00,22.6,22.3,00.0,31.5,24.3,13.6,0000.0,0002.03,0001.74,0001.64
2022-01-25 18:40:00,,0830.4,5.01,0.00,22.7,23.0,00.0,31.5,24.5,13.4,0000.0,0002.07,0001.78,0001.69
2022-01-25 18:41:00,,0830.4,4.99,0.00,22.8,23.1,00.0,31.6,24.7,13.3,0000.0,0002.11,0001.83,0001.73
2022-01-25 18:42:00,,0830.4,5.01,0.00,22.8,23.0,00.0,31.6,24.7,13.3,0000.0,0002.15,0001.88,0001.78
2022-01-25 18:43:00,,0830.4,5.01,0.00,22.8,22.8,00.0,31.6,24.7,13.3,0000.0,0002.18,0001.93,0001.82
2022-01-25 18:44:00,,0830.4,5.00,0.00,22.8,22.7,00.0,31.6,24.6,13.4,0000.0,0002.22,0001.99,0001.88
2022-01-25 18:45:00,,0830.4,5.00,0.00,22.8,22.6,00.0,31.6,24.6,13.4,0000.0,0002.29,0002.04,0001.92
2022-01-25 18:46:00,,0830.4,5.00,0.00,22.8,22.5,00.0,31.6,24.6,13.3,0000.0,0002.34,0002.09,0001.96
2022-01-25 18:47:00,,0830.4,5.00,0.00,22.8,22.4,00.0,31.6,24.6,13.2,0000.0,0002.43,0002.15,0002.00
2022-01-25 18:48:00,,0830.4,5.01,0.00,22.8,22.3,00.0,31.6,24.6,13.3,0000.0,0002.43,0002.18,0002.03
2022-01-25 18:49:00,,0830.4,5.00,0.00,22.8,22.3,00.0,31.6,24.6,13.3,0000.0,0002.49,0002.23,0002.06
2022-01-25 18:50:00,,0830.4,5.00,0.00,22.8,22.2,00.0,31.6,24.5,13.3,0000.0,0002.48,0002.24,0002.08
2022-01-25 18:51:00,,0830.4,5.01,0.00,22.8,22.2,00.0,31.6,24.5,13.3,0000.0,0002.61,0002.28,0002.10
2022-01-25 18:52:00,,0830.3,4.99,0.00,22.7,22.2,00.0,31.6,24.5,13.3,0000.0,0002.61,0002.30,0002.11
2022-01-25 18:53:00,,0830.3,4.99,0.00,22.7,22.1,00.0,31.6,24.4,13.3,0000.0,0002.60,0002.31,0002.13
2022-01-25 18:54:00,,0830.3,5.02,0.00,22.7,22.1,00.0,31.6,24.4,13.4,0000.0,0002.62,0002.33,0002.16
2022-01-25 18:55:00,,0830.3,5.00,0.00,22.7,22.1,00.0,31.6,24.4,13.4,0000.0,0002.73,0002.35,0002.18
2022-01-25 18:56:00,,0830.3,4.99,0.00,22.7,22.1,00.0,31.6,24.4,13.5,0000.0,0002.72,0002.36,0002.19
2022-01-25 18:57:00,,0830.3,4.99,0.00,22.6,22.0,00.0,31.6,24.4,13.5,0000.0,0002.79,0002.37,0002.21
2022-01-25 18:58:00,,0830.3,5.00,0.00,22.6,22.0,00.0,31.6,24.3,13.4,0000.0,0002.77,0002.38,0002.23
2022-01-25 18:59:00,,0830.3,5.00,0.00,22.6,22.0,00.0,31.6,24.3,13.5,0000.0,0002.89,0002.41,0002.26
